Index of /20260503/WXO-DD/model_caps/3km/00/015
Name Last modified Size Description
Parent Directory -
20260503T00Z_MSC_CAPS_AbsoluteVorticity_IsbL-0250_RLatLon0.03_PT015H.grib2 2026-05-03 06:11 1.4M
20260503T00Z_MSC_CAPS_AbsoluteVorticity_IsbL-0500_RLatLon0.03_PT015H.grib2 2026-05-03 06:11 1.1M
20260503T00Z_MSC_CAPS_AbsoluteVorticity_IsbL-0700_RLatLon0.03_PT015H.grib2 2026-05-03 06:11 1.1M
20260503T00Z_MSC_CAPS_AbsoluteVorticity_IsbL-0850_RLatLon0.03_PT015H.grib2 2026-05-03 06:11 1.5M
20260503T00Z_MSC_CAPS_AbsoluteVorticity_IsbL-1000_RLatLon0.03_PT015H.grib2 2026-05-03 06:11 1.3M
20260503T00Z_MSC_CAPS_AirDensity_AGL-120m_RLatLon0.03_PT015H.grib2 2026-05-03 06:11 1.4M
20260503T00Z_MSC_CAPS_AirDensity_AGL-40m_RLatLon0.03_PT015H.grib2 2026-05-03 06:11 1.4M
20260503T00Z_MSC_CAPS_AirDensity_AGL-80m_RLatLon0.03_PT015H.grib2 2026-05-03 06:11 1.4M
20260503T00Z_MSC_CAPS_AirTemp_AGL-120m_RLatLon0.03_PT015H.grib2 2026-05-03 06:11 1.4M
20260503T00Z_MSC_CAPS_AirTemp_AGL-2m_RLatLon0.03_PT015H.grib2 2026-05-03 06:11 1.7M
20260503T00Z_MSC_CAPS_AirTemp_AGL-40m_RLatLon0.03_PT015H.grib2 2026-05-03 06:11 1.5M
20260503T00Z_MSC_CAPS_AirTemp_AGL-80m_RLatLon0.03_PT015H.grib2 2026-05-03 06:11 1.4M
20260503T00Z_MSC_CAPS_AirTemp_IsbL-0050_RLatLon0.03_PT015H.grib2 2026-05-03 06:11 689K
20260503T00Z_MSC_CAPS_AirTemp_IsbL-0100_RLatLon0.03_PT015H.grib2 2026-05-03 06:11 733K
20260503T00Z_MSC_CAPS_AirTemp_IsbL-0150_RLatLon0.03_PT015H.grib2 2026-05-03 06:11 752K
20260503T00Z_MSC_CAPS_AirTemp_IsbL-0175_RLatLon0.03_PT015H.grib2 2026-05-03 06:11 768K
20260503T00Z_MSC_CAPS_AirTemp_IsbL-0200_RLatLon0.03_PT015H.grib2 2026-05-03 06:11 788K
20260503T00Z_MSC_CAPS_AirTemp_IsbL-0225_RLatLon0.03_PT015H.grib2 2026-05-03 06:11 792K
20260503T00Z_MSC_CAPS_AirTemp_IsbL-0250_RLatLon0.03_PT015H.grib2 2026-05-03 06:11 1.0M
20260503T00Z_MSC_CAPS_AirTemp_IsbL-0275_RLatLon0.03_PT015H.grib2 2026-05-03 06:11 1.0M
20260503T00Z_MSC_CAPS_AirTemp_IsbL-0300_RLatLon0.03_PT015H.grib2 2026-05-03 06:11 1.0M
20260503T00Z_MSC_CAPS_AirTemp_IsbL-0350_RLatLon0.03_PT015H.grib2 2026-05-03 06:11 747K
20260503T00Z_MSC_CAPS_AirTemp_IsbL-0400_RLatLon0.03_PT015H.grib2 2026-05-03 06:11 750K
20260503T00Z_MSC_CAPS_AirTemp_IsbL-0450_RLatLon0.03_PT015H.grib2 2026-05-03 06:11 766K
20260503T00Z_MSC_CAPS_AirTemp_IsbL-0500_RLatLon0.03_PT015H.grib2 2026-05-03 06:11 782K
20260503T00Z_MSC_CAPS_AirTemp_IsbL-0550_RLatLon0.03_PT015H.grib2 2026-05-03 06:11 951K
20260503T00Z_MSC_CAPS_AirTemp_IsbL-0600_RLatLon0.03_PT015H.grib2 2026-05-03 06:11 969K
20260503T00Z_MSC_CAPS_AirTemp_IsbL-0650_RLatLon0.03_PT015H.grib2 2026-05-03 06:11 1.0M
20260503T00Z_MSC_CAPS_AirTemp_IsbL-0700_RLatLon0.03_PT015H.grib2 2026-05-03 06:11 1.0M
20260503T00Z_MSC_CAPS_AirTemp_IsbL-0750_RLatLon0.03_PT015H.grib2 2026-05-03 06:11 1.0M
20260503T00Z_MSC_CAPS_AirTemp_IsbL-0800_RLatLon0.03_PT015H.grib2 2026-05-03 06:11 1.1M
20260503T00Z_MSC_CAPS_AirTemp_IsbL-0850_RLatLon0.03_PT015H.grib2 2026-05-03 06:11 1.1M
20260503T00Z_MSC_CAPS_AirTemp_IsbL-0875_RLatLon0.03_PT015H.grib2 2026-05-03 06:11 1.1M
20260503T00Z_MSC_CAPS_AirTemp_IsbL-0900_RLatLon0.03_PT015H.grib2 2026-05-03 06:11 1.1M
20260503T00Z_MSC_CAPS_AirTemp_IsbL-0925_RLatLon0.03_PT015H.grib2 2026-05-03 06:11 1.2M
20260503T00Z_MSC_CAPS_AirTemp_IsbL-0950_RLatLon0.03_PT015H.grib2 2026-05-03 06:11 1.1M
20260503T00Z_MSC_CAPS_AirTemp_IsbL-0970_RLatLon0.03_PT015H.grib2 2026-05-03 06:11 1.1M
20260503T00Z_MSC_CAPS_AirTemp_IsbL-0985_RLatLon0.03_PT015H.grib2 2026-05-03 06:11 1.1M
20260503T00Z_MSC_CAPS_AirTemp_IsbL-1000_RLatLon0.03_PT015H.grib2 2026-05-03 06:11 1.0M
20260503T00Z_MSC_CAPS_AirTemp_IsbL-1015_RLatLon0.03_PT015H.grib2 2026-05-03 06:11 1.1M
20260503T00Z_MSC_CAPS_Albedo_Sfc_RLatLon0.03_PT015H.grib2 2026-05-03 06:11 2.7M
20260503T00Z_MSC_CAPS_CAPE_Sfc_RLatLon0.03_PT015H.grib2 2026-05-03 06:11 176K
20260503T00Z_MSC_CAPS_CloudWater_EAtm_RLatLon0.03_PT015H.grib2 2026-05-03 06:11 1.4M
20260503T00Z_MSC_CAPS_ConvectivePrecip-Accum_Sfc_RLatLon0.03_PT015H.grib2 2026-05-03 06:11 2.8M
20260503T00Z_MSC_CAPS_DewPointDepression_AGL-120m_RLatLon0.03_PT015H.grib2 2026-05-03 06:11 2.0M
20260503T00Z_MSC_CAPS_DewPointDepression_AGL-2m_RLatLon0.03_PT015H.grib2 2026-05-03 06:11 2.1M
20260503T00Z_MSC_CAPS_DewPointDepression_AGL-40m_RLatLon0.03_PT015H.grib2 2026-05-03 06:11 2.1M
20260503T00Z_MSC_CAPS_DewPointDepression_AGL-80m_RLatLon0.03_PT015H.grib2 2026-05-03 06:11 2.0M
20260503T00Z_MSC_CAPS_DewPointDepression_IsbL-0050_RLatLon0.03_PT015H.grib2 2026-05-03 06:11 12K
20260503T00Z_MSC_CAPS_DewPointDepression_IsbL-0100_RLatLon0.03_PT015H.grib2 2026-05-03 06:11 96K
20260503T00Z_MSC_CAPS_DewPointDepression_IsbL-0150_RLatLon0.03_PT015H.grib2 2026-05-03 06:11 89K
20260503T00Z_MSC_CAPS_DewPointDepression_IsbL-0175_RLatLon0.03_PT015H.grib2 2026-05-03 06:11 230K
20260503T00Z_MSC_CAPS_DewPointDepression_IsbL-0200_RLatLon0.03_PT015H.grib2 2026-05-03 06:11 374K
20260503T00Z_MSC_CAPS_DewPointDepression_IsbL-0225_RLatLon0.03_PT015H.grib2 2026-05-03 06:11 627K
20260503T00Z_MSC_CAPS_DewPointDepression_IsbL-0250_RLatLon0.03_PT015H.grib2 2026-05-03 06:11 837K
20260503T00Z_MSC_CAPS_DewPointDepression_IsbL-0275_RLatLon0.03_PT015H.grib2 2026-05-03 06:11 1.0M
20260503T00Z_MSC_CAPS_DewPointDepression_IsbL-0300_RLatLon0.03_PT015H.grib2 2026-05-03 06:11 1.0M
20260503T00Z_MSC_CAPS_DewPointDepression_IsbL-0350_RLatLon0.03_PT015H.grib2 2026-05-03 06:11 1.0M
20260503T00Z_MSC_CAPS_DewPointDepression_IsbL-0400_RLatLon0.03_PT015H.grib2 2026-05-03 06:11 1.1M
20260503T00Z_MSC_CAPS_DewPointDepression_IsbL-0450_RLatLon0.03_PT015H.grib2 2026-05-03 06:11 1.1M
20260503T00Z_MSC_CAPS_DewPointDepression_IsbL-0500_RLatLon0.03_PT015H.grib2 2026-05-03 06:11 1.1M
20260503T00Z_MSC_CAPS_DewPointDepression_IsbL-0550_RLatLon0.03_PT015H.grib2 2026-05-03 06:11 1.2M
20260503T00Z_MSC_CAPS_DewPointDepression_IsbL-0600_RLatLon0.03_PT015H.grib2 2026-05-03 06:11 1.2M
20260503T00Z_MSC_CAPS_DewPointDepression_IsbL-0650_RLatLon0.03_PT015H.grib2 2026-05-03 06:11 1.3M
20260503T00Z_MSC_CAPS_DewPointDepression_IsbL-0700_RLatLon0.03_PT015H.grib2 2026-05-03 06:11 1.3M
20260503T00Z_MSC_CAPS_DewPointDepression_IsbL-0750_RLatLon0.03_PT015H.grib2 2026-05-03 06:11 1.3M
20260503T00Z_MSC_CAPS_DewPointDepression_IsbL-0800_RLatLon0.03_PT015H.grib2 2026-05-03 06:11 1.3M
20260503T00Z_MSC_CAPS_DewPointDepression_IsbL-0850_RLatLon0.03_PT015H.grib2 2026-05-03 06:11 1.3M
20260503T00Z_MSC_CAPS_DewPointDepression_IsbL-0875_RLatLon0.03_PT015H.grib2 2026-05-03 06:11 1.3M
20260503T00Z_MSC_CAPS_DewPointDepression_IsbL-0900_RLatLon0.03_PT015H.grib2 2026-05-03 06:11 1.3M
20260503T00Z_MSC_CAPS_DewPointDepression_IsbL-0925_RLatLon0.03_PT015H.grib2 2026-05-03 06:11 1.3M
20260503T00Z_MSC_CAPS_DewPointDepression_IsbL-0950_RLatLon0.03_PT015H.grib2 2026-05-03 06:11 1.4M
20260503T00Z_MSC_CAPS_DewPointDepression_IsbL-0970_RLatLon0.03_PT015H.grib2 2026-05-03 06:11 1.3M
20260503T00Z_MSC_CAPS_DewPointDepression_IsbL-0985_RLatLon0.03_PT015H.grib2 2026-05-03 06:11 1.3M
20260503T00Z_MSC_CAPS_DewPointDepression_IsbL-1000_RLatLon0.03_PT015H.grib2 2026-05-03 06:11 1.3M
20260503T00Z_MSC_CAPS_DewPointDepression_IsbL-1015_RLatLon0.03_PT015H.grib2 2026-05-03 06:11 1.3M
20260503T00Z_MSC_CAPS_DewPoint_AGL-120m_RLatLon0.03_PT015H.grib2 2026-05-03 06:11 3.6M
20260503T00Z_MSC_CAPS_DewPoint_AGL-2m_RLatLon0.03_PT015H.grib2 2026-05-03 06:11 1.8M
20260503T00Z_MSC_CAPS_DewPoint_AGL-40m_RLatLon0.03_PT015H.grib2 2026-05-03 06:11 3.7M
20260503T00Z_MSC_CAPS_DewPoint_AGL-80m_RLatLon0.03_PT015H.grib2 2026-05-03 06:11 3.6M
20260503T00Z_MSC_CAPS_DownwardLongwaveRadiationFlux-Accum_Sfc_RLatLon0.03_PT015H.grib2 2026-05-03 06:11 2.5M
20260503T00Z_MSC_CAPS_DownwardShortwaveRadiationFlux-Accum_NTAtm_RLatLon0.03_PT015H.grib2 2026-05-03 06:11 476K
20260503T00Z_MSC_CAPS_DownwardShortwaveRadiationFlux-Accum_Sfc_RLatLon0.03_PT015H.grib2 2026-05-03 06:11 2.7M
20260503T00Z_MSC_CAPS_FreezingRain-Accum_Sfc_RLatLon0.03_PT015H.grib2 2026-05-03 06:11 615K
20260503T00Z_MSC_CAPS_GeopotentialHeight_IsbL-0050_RLatLon0.03_PT015H.grib2 2026-05-03 06:11 637K
20260503T00Z_MSC_CAPS_GeopotentialHeight_IsbL-0100_RLatLon0.03_PT015H.grib2 2026-05-03 06:11 767K
20260503T00Z_MSC_CAPS_GeopotentialHeight_IsbL-0150_RLatLon0.03_PT015H.grib2 2026-05-03 06:11 720K
20260503T00Z_MSC_CAPS_GeopotentialHeight_IsbL-0175_RLatLon0.03_PT015H.grib2 2026-05-03 06:11 731K
20260503T00Z_MSC_CAPS_GeopotentialHeight_IsbL-0200_RLatLon0.03_PT015H.grib2 2026-05-03 06:11 745K
20260503T00Z_MSC_CAPS_GeopotentialHeight_IsbL-0225_RLatLon0.03_PT015H.grib2 2026-05-03 06:11 754K
20260503T00Z_MSC_CAPS_GeopotentialHeight_IsbL-0250_RLatLon0.03_PT015H.grib2 2026-05-03 06:11 765K
20260503T00Z_MSC_CAPS_GeopotentialHeight_IsbL-0275_RLatLon0.03_PT015H.grib2 2026-05-03 06:11 775K
20260503T00Z_MSC_CAPS_GeopotentialHeight_IsbL-0300_RLatLon0.03_PT015H.grib2 2026-05-03 06:11 783K
20260503T00Z_MSC_CAPS_GeopotentialHeight_IsbL-0350_RLatLon0.03_PT015H.grib2 2026-05-03 06:11 781K
20260503T00Z_MSC_CAPS_GeopotentialHeight_IsbL-0400_RLatLon0.03_PT015H.grib2 2026-05-03 06:11 774K
20260503T00Z_MSC_CAPS_GeopotentialHeight_IsbL-0450_RLatLon0.03_PT015H.grib2 2026-05-03 06:11 764K
20260503T00Z_MSC_CAPS_GeopotentialHeight_IsbL-0500_RLatLon0.03_PT015H.grib2 2026-05-03 06:11 759K
20260503T00Z_MSC_CAPS_GeopotentialHeight_IsbL-0550_RLatLon0.03_PT015H.grib2 2026-05-03 06:11 749K
20260503T00Z_MSC_CAPS_GeopotentialHeight_IsbL-0600_RLatLon0.03_PT015H.grib2 2026-05-03 06:11 631K
20260503T00Z_MSC_CAPS_GeopotentialHeight_IsbL-0650_RLatLon0.03_PT015H.grib2 2026-05-03 06:11 627K
20260503T00Z_MSC_CAPS_GeopotentialHeight_IsbL-0700_RLatLon0.03_PT015H.grib2 2026-05-03 06:11 628K
20260503T00Z_MSC_CAPS_GeopotentialHeight_IsbL-0750_RLatLon0.03_PT015H.grib2 2026-05-03 06:11 632K
20260503T00Z_MSC_CAPS_GeopotentialHeight_IsbL-0800_RLatLon0.03_PT015H.grib2 2026-05-03 06:11 818K
20260503T00Z_MSC_CAPS_GeopotentialHeight_IsbL-0850_RLatLon0.03_PT015H.grib2 2026-05-03 06:11 826K
20260503T00Z_MSC_CAPS_GeopotentialHeight_IsbL-0875_RLatLon0.03_PT015H.grib2 2026-05-03 06:11 832K
20260503T00Z_MSC_CAPS_GeopotentialHeight_IsbL-0900_RLatLon0.03_PT015H.grib2 2026-05-03 06:11 838K
20260503T00Z_MSC_CAPS_GeopotentialHeight_IsbL-0925_RLatLon0.03_PT015H.grib2 2026-05-03 06:11 850K
20260503T00Z_MSC_CAPS_GeopotentialHeight_IsbL-0950_RLatLon0.03_PT015H.grib2 2026-05-03 06:11 852K
20260503T00Z_MSC_CAPS_GeopotentialHeight_IsbL-0970_RLatLon0.03_PT015H.grib2 2026-05-03 06:11 871K
20260503T00Z_MSC_CAPS_GeopotentialHeight_IsbL-0985_RLatLon0.03_PT015H.grib2 2026-05-03 06:11 879K
20260503T00Z_MSC_CAPS_GeopotentialHeight_IsbL-1000_RLatLon0.03_PT015H.grib2 2026-05-03 06:11 887K
20260503T00Z_MSC_CAPS_GeopotentialHeight_IsbL-1015_RLatLon0.03_PT015H.grib2 2026-05-03 06:11 893K
20260503T00Z_MSC_CAPS_GeopotentialHeight_Sfc_RLatLon0.03_PT015H.grib2 2026-05-03 06:11 1.0M
20260503T00Z_MSC_CAPS_IcePellets-Accum_Sfc_RLatLon0.03_PT015H.grib2 2026-05-03 06:11 42K
20260503T00Z_MSC_CAPS_LatentHeatNetFlux_Sfc_RLatLon0.03_PT015H.grib2 2026-05-03 06:11 1.5M
20260503T00Z_MSC_CAPS_LiftedIndex-MU-VT_IsbL-0500_RLatLon0.03_PT015H.grib2 2026-05-03 06:11 3.3M
20260503T00Z_MSC_CAPS_MixedLayerThickness_Sfc_RLatLon0.03_PT015H.nc 2026-05-03 06:12 16M
20260503T00Z_MSC_CAPS_NetLongwaveRadiationFlux-Accum_Sfc_RLatLon0.03_PT015H.grib2 2026-05-03 06:11 2.7M
20260503T00Z_MSC_CAPS_NetShortwaveRadiationFlux-Accum_Sfc_RLatLon0.03_PT015H.grib2 2026-05-03 06:11 2.7M
20260503T00Z_MSC_CAPS_PlanetaryBoundaryLayerHeight_Sfc_RLatLon0.03_PT015H.grib2 2026-05-03 06:11 2.8M
20260503T00Z_MSC_CAPS_Precip-Accum_Sfc_RLatLon0.03_PT015H.grib2 2026-05-03 06:11 4.5M
20260503T00Z_MSC_CAPS_PrecipRate_Sfc_RLatLon0.03_PT015H.grib2 2026-05-03 06:11 567K
20260503T00Z_MSC_CAPS_PrecipType-Instant_Sfc_RLatLon0.03_PT015H.grib2 2026-05-03 06:11 1.7M
20260503T00Z_MSC_CAPS_Pressure_MSL_RLatLon0.03_PT015H.grib2 2026-05-03 06:11 773K
20260503T00Z_MSC_CAPS_Pressure_Sfc_RLatLon0.03_PT015H.grib2 2026-05-03 06:11 1.2M
20260503T00Z_MSC_CAPS_RadiativeTemp_Sfc_RLatLon0.03_PT015H.grib2 2026-05-03 06:11 2.1M
20260503T00Z_MSC_CAPS_Rain-Accum_Sfc_RLatLon0.03_PT015H.grib2 2026-05-03 06:11 2.0M
20260503T00Z_MSC_CAPS_RelativeHumidity_AGL-120m_RLatLon0.03_PT015H.grib2 2026-05-03 06:11 2.8M
20260503T00Z_MSC_CAPS_RelativeHumidity_AGL-2m_RLatLon0.03_PT015H.grib2 2026-05-03 06:11 2.9M
20260503T00Z_MSC_CAPS_RelativeHumidity_AGL-40m_RLatLon0.03_PT015H.grib2 2026-05-03 06:11 2.8M
20260503T00Z_MSC_CAPS_RelativeHumidity_AGL-80m_RLatLon0.03_PT015H.grib2 2026-05-03 06:11 2.8M
20260503T00Z_MSC_CAPS_RelativeHumidity_IsbL-0050_RLatLon0.03_PT015H.grib2 2026-05-03 06:11 720K
20260503T00Z_MSC_CAPS_RelativeHumidity_IsbL-0100_RLatLon0.03_PT015H.grib2 2026-05-03 06:11 858K
20260503T00Z_MSC_CAPS_RelativeHumidity_IsbL-0150_RLatLon0.03_PT015H.grib2 2026-05-03 06:11 497K
20260503T00Z_MSC_CAPS_RelativeHumidity_IsbL-0175_RLatLon0.03_PT015H.grib2 2026-05-03 06:11 479K
20260503T00Z_MSC_CAPS_RelativeHumidity_IsbL-0200_RLatLon0.03_PT015H.grib2 2026-05-03 06:11 642K
20260503T00Z_MSC_CAPS_RelativeHumidity_IsbL-0225_RLatLon0.03_PT015H.grib2 2026-05-03 06:11 864K
20260503T00Z_MSC_CAPS_RelativeHumidity_IsbL-0250_RLatLon0.03_PT015H.grib2 2026-05-03 06:11 1.1M
20260503T00Z_MSC_CAPS_RelativeHumidity_IsbL-0275_RLatLon0.03_PT015H.grib2 2026-05-03 06:11 1.4M
20260503T00Z_MSC_CAPS_RelativeHumidity_IsbL-0300_RLatLon0.03_PT015H.grib2 2026-05-03 06:11 1.5M
20260503T00Z_MSC_CAPS_RelativeHumidity_IsbL-0350_RLatLon0.03_PT015H.grib2 2026-05-03 06:11 1.9M
20260503T00Z_MSC_CAPS_RelativeHumidity_IsbL-0400_RLatLon0.03_PT015H.grib2 2026-05-03 06:11 1.9M
20260503T00Z_MSC_CAPS_RelativeHumidity_IsbL-0450_RLatLon0.03_PT015H.grib2 2026-05-03 06:11 2.0M
20260503T00Z_MSC_CAPS_RelativeHumidity_IsbL-0500_RLatLon0.03_PT015H.grib2 2026-05-03 06:11 2.1M
20260503T00Z_MSC_CAPS_RelativeHumidity_IsbL-0550_RLatLon0.03_PT015H.grib2 2026-05-03 06:11 2.1M
20260503T00Z_MSC_CAPS_RelativeHumidity_IsbL-0600_RLatLon0.03_PT015H.grib2 2026-05-03 06:11 2.1M
20260503T00Z_MSC_CAPS_RelativeHumidity_IsbL-0650_RLatLon0.03_PT015H.grib2 2026-05-03 06:11 2.3M
20260503T00Z_MSC_CAPS_RelativeHumidity_IsbL-0700_RLatLon0.03_PT015H.grib2 2026-05-03 06:11 2.3M
20260503T00Z_MSC_CAPS_RelativeHumidity_IsbL-0750_RLatLon0.03_PT015H.grib2 2026-05-03 06:11 2.4M
20260503T00Z_MSC_CAPS_RelativeHumidity_IsbL-0800_RLatLon0.03_PT015H.grib2 2026-05-03 06:11 2.4M
20260503T00Z_MSC_CAPS_RelativeHumidity_IsbL-0850_RLatLon0.03_PT015H.grib2 2026-05-03 06:11 2.5M
20260503T00Z_MSC_CAPS_RelativeHumidity_IsbL-0875_RLatLon0.03_PT015H.grib2 2026-05-03 06:11 2.5M
20260503T00Z_MSC_CAPS_RelativeHumidity_IsbL-0900_RLatLon0.03_PT015H.grib2 2026-05-03 06:11 2.6M
20260503T00Z_MSC_CAPS_RelativeHumidity_IsbL-0925_RLatLon0.03_PT015H.grib2 2026-05-03 06:11 2.6M
20260503T00Z_MSC_CAPS_RelativeHumidity_IsbL-0950_RLatLon0.03_PT015H.grib2 2026-05-03 06:11 2.7M
20260503T00Z_MSC_CAPS_RelativeHumidity_IsbL-0970_RLatLon0.03_PT015H.grib2 2026-05-03 06:11 2.8M
20260503T00Z_MSC_CAPS_RelativeHumidity_IsbL-0985_RLatLon0.03_PT015H.grib2 2026-05-03 06:11 2.8M
20260503T00Z_MSC_CAPS_RelativeHumidity_IsbL-1000_RLatLon0.03_PT015H.grib2 2026-05-03 06:11 2.8M
20260503T00Z_MSC_CAPS_RelativeHumidity_IsbL-1015_RLatLon0.03_PT015H.grib2 2026-05-03 06:11 2.9M
20260503T00Z_MSC_CAPS_Runoff-Accum_Sfc_RLatLon0.03_PT015H.grib2 2026-05-03 06:11 286K
20260503T00Z_MSC_CAPS_SeaIceAreaFraction_Sfc_RLatLon0.03_PT015H.nc 2026-05-03 06:12 15M
20260503T00Z_MSC_CAPS_SeaIceCompressiveStrength_Sfc_RLatLon0.03_PT015H.nc 2026-05-03 06:12 15M
20260503T00Z_MSC_CAPS_SeaIceDivergence_Sfc_RLatLon0.03_PT015H.nc 2026-05-03 06:12 15M
20260503T00Z_MSC_CAPS_SeaIceInternalPressure_Sfc_RLatLon0.03_PT015H.nc 2026-05-03 06:12 15M
20260503T00Z_MSC_CAPS_SeaIceShear_Sfc_RLatLon0.03_PT015H.nc 2026-05-03 06:12 15M
20260503T00Z_MSC_CAPS_SeaIceSnowTemp_Sfc_RLatLon0.03_PT015H.nc 2026-05-03 06:12 14M
20260503T00Z_MSC_CAPS_SeaIceSnowVolume_Sfc_RLatLon0.03_PT015H.nc 2026-05-03 06:12 15M
20260503T00Z_MSC_CAPS_SeaIceVelocityX_Sfc_RLatLon0.03_PT015H.nc 2026-05-03 06:12 15M
20260503T00Z_MSC_CAPS_SeaIceVelocityY_Sfc_RLatLon0.03_PT015H.nc 2026-05-03 06:12 15M
20260503T00Z_MSC_CAPS_SeaIceVolume_Sfc_RLatLon0.03_PT015H.nc 2026-05-03 06:12 15M
20260503T00Z_MSC_CAPS_SeaSurfaceHeight_Sfc_RLatLon0.03_PT015H.nc 2026-05-03 06:12 16M
20260503T00Z_MSC_CAPS_SeaWaterSalinity_DBS-0.5m_RLatLon0.03_PT015H.nc 2026-05-03 06:12 16M
20260503T00Z_MSC_CAPS_SeaWaterSalinity_DBS-all_RLatLon0.03_PT015H.nc 2026-05-03 06:12 107M
20260503T00Z_MSC_CAPS_SeaWaterTemp_DBS-0.5m_RLatLon0.03_PT015H.nc 2026-05-03 06:12 14M
20260503T00Z_MSC_CAPS_SeaWaterTemp_DBS-all_RLatLon0.03_PT015H.nc 2026-05-03 06:12 88M
20260503T00Z_MSC_CAPS_SeaWaterVelocityX_DBS-0.5m_RLatLon0.03_PT015H.nc 2026-05-03 06:12 17M
20260503T00Z_MSC_CAPS_SeaWaterVelocityX_DBS-all_RLatLon0.03_PT015H.nc 2026-05-03 06:12 209M
20260503T00Z_MSC_CAPS_SeaWaterVelocityY_DBS-0.5m_RLatLon0.03_PT015H.nc 2026-05-03 06:12 17M
20260503T00Z_MSC_CAPS_SeaWaterVelocityY_DBS-all_RLatLon0.03_PT015H.nc 2026-05-03 06:12 212M
20260503T00Z_MSC_CAPS_SensibleHeatNetFlux_Sfc_RLatLon0.03_PT015H.grib2 2026-05-03 06:11 2.1M
20260503T00Z_MSC_CAPS_ShowalterIndex_IsbL-0500_RLatLon0.03_PT015H.grib2 2026-05-03 06:11 4.3M
20260503T00Z_MSC_CAPS_Snow-Accum_Sfc_RLatLon0.03_PT015H.grib2 2026-05-03 06:11 3.4M
20260503T00Z_MSC_CAPS_SnowDensity_Sfc_RLatLon0.03_PT015H.grib2 2026-05-03 06:11 1.2M
20260503T00Z_MSC_CAPS_SnowDepthWaterEquivalent_Sfc_RLatLon0.03_PT015H.grib2 2026-05-03 06:11 660K
20260503T00Z_MSC_CAPS_SnowDepth_Sfc_RLatLon0.03_PT015H.grib2 2026-05-03 06:11 1.1M
20260503T00Z_MSC_CAPS_SoilTemp_DBS-0to10cm_RLatLon0.03_PT015H.grib2 2026-05-03 06:11 1.5M
20260503T00Z_MSC_CAPS_SoilTemp_Sfc_RLatLon0.03_PT015H.grib2 2026-05-03 06:11 1.9M
20260503T00Z_MSC_CAPS_SoilVolumetricIceContent_Sfc_RLatLon0.03_PT015H.grib2 2026-05-03 06:11 1.4M
20260503T00Z_MSC_CAPS_SoilVolumetricWaterContent_DBS-0to10cm_RLatLon0.03_PT015H.grib2 2026-05-03 06:11 1.2M
20260503T00Z_MSC_CAPS_SoilVolumetricWaterContent_DBS-0to1cm_RLatLon0.03_PT015H.grib2 2026-05-03 06:11 1.7M
20260503T00Z_MSC_CAPS_SpecificHumidity_AGL-120m_RLatLon0.03_PT015H.grib2 2026-05-03 06:11 1.8M
20260503T00Z_MSC_CAPS_SpecificHumidity_AGL-2m_RLatLon0.03_PT015H.grib2 2026-05-03 06:11 1.7M
20260503T00Z_MSC_CAPS_SpecificHumidity_AGL-40m_RLatLon0.03_PT015H.grib2 2026-05-03 06:11 1.9M
20260503T00Z_MSC_CAPS_SpecificHumidity_AGL-80m_RLatLon0.03_PT015H.grib2 2026-05-03 06:11 1.8M
20260503T00Z_MSC_CAPS_SpecificHumidity_IsbL-0050_RLatLon0.03_PT015H.grib2 2026-05-03 06:11 877K
20260503T00Z_MSC_CAPS_SpecificHumidity_IsbL-0100_RLatLon0.03_PT015H.grib2 2026-05-03 06:11 960K
20260503T00Z_MSC_CAPS_SpecificHumidity_IsbL-0150_RLatLon0.03_PT015H.grib2 2026-05-03 06:11 759K
20260503T00Z_MSC_CAPS_SpecificHumidity_IsbL-0175_RLatLon0.03_PT015H.grib2 2026-05-03 06:11 1.0M
20260503T00Z_MSC_CAPS_SpecificHumidity_IsbL-0200_RLatLon0.03_PT015H.grib2 2026-05-03 06:11 858K
20260503T00Z_MSC_CAPS_SpecificHumidity_IsbL-0225_RLatLon0.03_PT015H.grib2 2026-05-03 06:11 1.0M
20260503T00Z_MSC_CAPS_SpecificHumidity_IsbL-0250_RLatLon0.03_PT015H.grib2 2026-05-03 06:11 1.0M
20260503T00Z_MSC_CAPS_SpecificHumidity_IsbL-0275_RLatLon0.03_PT015H.grib2 2026-05-03 06:11 1.1M
20260503T00Z_MSC_CAPS_SpecificHumidity_IsbL-0300_RLatLon0.03_PT015H.grib2 2026-05-03 06:11 967K
20260503T00Z_MSC_CAPS_SpecificHumidity_IsbL-0350_RLatLon0.03_PT015H.grib2 2026-05-03 06:11 1.3M
20260503T00Z_MSC_CAPS_SpecificHumidity_IsbL-0400_RLatLon0.03_PT015H.grib2 2026-05-03 06:11 1.1M
20260503T00Z_MSC_CAPS_SpecificHumidity_IsbL-0450_RLatLon0.03_PT015H.grib2 2026-05-03 06:11 1.1M
20260503T00Z_MSC_CAPS_SpecificHumidity_IsbL-0500_RLatLon0.03_PT015H.grib2 2026-05-03 06:11 1.0M
20260503T00Z_MSC_CAPS_SpecificHumidity_IsbL-0550_RLatLon0.03_PT015H.grib2 2026-05-03 06:11 1.2M
20260503T00Z_MSC_CAPS_SpecificHumidity_IsbL-0600_RLatLon0.03_PT015H.grib2 2026-05-03 06:11 1.3M
20260503T00Z_MSC_CAPS_SpecificHumidity_IsbL-0650_RLatLon0.03_PT015H.grib2 2026-05-03 06:11 1.6M
20260503T00Z_MSC_CAPS_SpecificHumidity_IsbL-0700_RLatLon0.03_PT015H.grib2 2026-05-03 06:11 1.6M
20260503T00Z_MSC_CAPS_SpecificHumidity_IsbL-0750_RLatLon0.03_PT015H.grib2 2026-05-03 06:11 1.4M
20260503T00Z_MSC_CAPS_SpecificHumidity_IsbL-0800_RLatLon0.03_PT015H.grib2 2026-05-03 06:11 1.5M
20260503T00Z_MSC_CAPS_SpecificHumidity_IsbL-0850_RLatLon0.03_PT015H.grib2 2026-05-03 06:11 1.6M
20260503T00Z_MSC_CAPS_SpecificHumidity_IsbL-0875_RLatLon0.03_PT015H.grib2 2026-05-03 06:11 1.7M
20260503T00Z_MSC_CAPS_SpecificHumidity_IsbL-0900_RLatLon0.03_PT015H.grib2 2026-05-03 06:11 1.8M
20260503T00Z_MSC_CAPS_SpecificHumidity_IsbL-0925_RLatLon0.03_PT015H.grib2 2026-05-03 06:11 1.9M
20260503T00Z_MSC_CAPS_SpecificHumidity_IsbL-0950_RLatLon0.03_PT015H.grib2 2026-05-03 06:11 1.9M
20260503T00Z_MSC_CAPS_SpecificHumidity_IsbL-0970_RLatLon0.03_PT015H.grib2 2026-05-03 06:11 2.0M
20260503T00Z_MSC_CAPS_SpecificHumidity_IsbL-0985_RLatLon0.03_PT015H.grib2 2026-05-03 06:11 2.0M
20260503T00Z_MSC_CAPS_SpecificHumidity_IsbL-1000_RLatLon0.03_PT015H.grib2 2026-05-03 06:11 1.7M
20260503T00Z_MSC_CAPS_SpecificHumidity_IsbL-1015_RLatLon0.03_PT015H.grib2 2026-05-03 06:11 1.7M
20260503T00Z_MSC_CAPS_SpecificHumidity_Sfc_RLatLon0.03_PT015H.grib2 2026-05-03 06:11 2.0M
20260503T00Z_MSC_CAPS_StormRelativeHelicity_Sfc_RLatLon0.03_PT015H.grib2 2026-05-03 06:11 3.2M
20260503T00Z_MSC_CAPS_Thickness_IsbL-1000to0500_RLatLon0.03_PT015H.grib2 2026-05-03 06:11 474K
20260503T00Z_MSC_CAPS_TotalCloudCover_Sfc_RLatLon0.03_PT015H.grib2 2026-05-03 06:11 3.5M
20260503T00Z_MSC_CAPS_TurboclineDepth_Sfc_RLatLon0.03_PT015H.nc 2026-05-03 06:12 16M
20260503T00Z_MSC_CAPS_UpwardLongwaveRadiationFlux_NTAtm_RLatLon0.03_PT015H.grib2 2026-05-03 06:11 2.9M
20260503T00Z_MSC_CAPS_UpwardShortwaveRadiationFlux_NTAtm_RLatLon0.03_PT015H.grib2 2026-05-03 06:11 2.5M
20260503T00Z_MSC_CAPS_VerticalVelocity_IsbL-0250_RLatLon0.03_PT015H.grib2 2026-05-03 06:11 1.2M
20260503T00Z_MSC_CAPS_VerticalVelocity_IsbL-0500_RLatLon0.03_PT015H.grib2 2026-05-03 06:11 1.1M
20260503T00Z_MSC_CAPS_VerticalVelocity_IsbL-0700_RLatLon0.03_PT015H.grib2 2026-05-03 06:11 1.2M
20260503T00Z_MSC_CAPS_VerticalVelocity_IsbL-0850_RLatLon0.03_PT015H.grib2 2026-05-03 06:11 1.4M
20260503T00Z_MSC_CAPS_VerticalVelocity_IsbL-1000_RLatLon0.03_PT015H.grib2 2026-05-03 06:11 1.4M
20260503T00Z_MSC_CAPS_WindDir_AGL-10m_RLatLon0.03_PT015H.grib2 2026-05-03 06:11 2.3M
20260503T00Z_MSC_CAPS_WindDir_AGL-120m_RLatLon0.03_PT015H.grib2 2026-05-03 06:11 1.2M
20260503T00Z_MSC_CAPS_WindDir_AGL-40m_RLatLon0.03_PT015H.grib2 2026-05-03 06:11 1.3M
20260503T00Z_MSC_CAPS_WindDir_AGL-80m_RLatLon0.03_PT015H.grib2 2026-05-03 06:11 1.3M
20260503T00Z_MSC_CAPS_WindDir_IsbL-0050_RLatLon0.03_PT015H.grib2 2026-05-03 06:11 1.0M
20260503T00Z_MSC_CAPS_WindDir_IsbL-0100_RLatLon0.03_PT015H.grib2 2026-05-03 06:11 1.1M
20260503T00Z_MSC_CAPS_WindDir_IsbL-0150_RLatLon0.03_PT015H.grib2 2026-05-03 06:11 1.0M
20260503T00Z_MSC_CAPS_WindDir_IsbL-0175_RLatLon0.03_PT015H.grib2 2026-05-03 06:11 1.1M
20260503T00Z_MSC_CAPS_WindDir_IsbL-0200_RLatLon0.03_PT015H.grib2 2026-05-03 06:11 1.1M
20260503T00Z_MSC_CAPS_WindDir_IsbL-0225_RLatLon0.03_PT015H.grib2 2026-05-03 06:11 1.1M
20260503T00Z_MSC_CAPS_WindDir_IsbL-0250_RLatLon0.03_PT015H.grib2 2026-05-03 06:11 1.1M
20260503T00Z_MSC_CAPS_WindDir_IsbL-0275_RLatLon0.03_PT015H.grib2 2026-05-03 06:11 1.1M
20260503T00Z_MSC_CAPS_WindDir_IsbL-0300_RLatLon0.03_PT015H.grib2 2026-05-03 06:11 1.1M
20260503T00Z_MSC_CAPS_WindDir_IsbL-0350_RLatLon0.03_PT015H.grib2 2026-05-03 06:11 1.1M
20260503T00Z_MSC_CAPS_WindDir_IsbL-0400_RLatLon0.03_PT015H.grib2 2026-05-03 06:11 1.1M
20260503T00Z_MSC_CAPS_WindDir_IsbL-0450_RLatLon0.03_PT015H.grib2 2026-05-03 06:11 1.2M
20260503T00Z_MSC_CAPS_WindDir_IsbL-0500_RLatLon0.03_PT015H.grib2 2026-05-03 06:11 1.2M
20260503T00Z_MSC_CAPS_WindDir_IsbL-0550_RLatLon0.03_PT015H.grib2 2026-05-03 06:11 1.2M
20260503T00Z_MSC_CAPS_WindDir_IsbL-0600_RLatLon0.03_PT015H.grib2 2026-05-03 06:11 1.2M
20260503T00Z_MSC_CAPS_WindDir_IsbL-0650_RLatLon0.03_PT015H.grib2 2026-05-03 06:11 1.3M
20260503T00Z_MSC_CAPS_WindDir_IsbL-0700_RLatLon0.03_PT015H.grib2 2026-05-03 06:11 1.4M
20260503T00Z_MSC_CAPS_WindDir_IsbL-0750_RLatLon0.03_PT015H.grib2 2026-05-03 06:11 1.5M
20260503T00Z_MSC_CAPS_WindDir_IsbL-0800_RLatLon0.03_PT015H.grib2 2026-05-03 06:11 1.6M
20260503T00Z_MSC_CAPS_WindDir_IsbL-0850_RLatLon0.03_PT015H.grib2 2026-05-03 06:11 1.7M
20260503T00Z_MSC_CAPS_WindDir_IsbL-0875_RLatLon0.03_PT015H.grib2 2026-05-03 06:11 1.8M
20260503T00Z_MSC_CAPS_WindDir_IsbL-0900_RLatLon0.03_PT015H.grib2 2026-05-03 06:11 1.9M
20260503T00Z_MSC_CAPS_WindDir_IsbL-0925_RLatLon0.03_PT015H.grib2 2026-05-03 06:11 1.9M
20260503T00Z_MSC_CAPS_WindDir_IsbL-0950_RLatLon0.03_PT015H.grib2 2026-05-03 06:11 2.0M
20260503T00Z_MSC_CAPS_WindDir_IsbL-0970_RLatLon0.03_PT015H.grib2 2026-05-03 06:11 2.1M
20260503T00Z_MSC_CAPS_WindDir_IsbL-0985_RLatLon0.03_PT015H.grib2 2026-05-03 06:11 2.1M
20260503T00Z_MSC_CAPS_WindDir_IsbL-1000_RLatLon0.03_PT015H.grib2 2026-05-03 06:11 2.2M
20260503T00Z_MSC_CAPS_WindDir_IsbL-1015_RLatLon0.03_PT015H.grib2 2026-05-03 06:11 2.3M
20260503T00Z_MSC_CAPS_WindGust-Max_AGL-10m_RLatLon0.03_PT015H.grib2 2026-05-03 06:11 2.5M
20260503T00Z_MSC_CAPS_WindGust-Min_AGL-10m_RLatLon0.03_PT015H.grib2 2026-05-03 06:11 2.4M
20260503T00Z_MSC_CAPS_WindGust_AGL-10m_RLatLon0.03_PT015H.grib2 2026-05-03 06:11 2.5M
20260503T00Z_MSC_CAPS_WindSpeed_AGL-10m_RLatLon0.03_PT015H.grib2 2026-05-03 06:11 2.1M
20260503T00Z_MSC_CAPS_WindSpeed_AGL-120m_RLatLon0.03_PT015H.grib2 2026-05-03 06:11 1.1M
20260503T00Z_MSC_CAPS_WindSpeed_AGL-40m_RLatLon0.03_PT015H.grib2 2026-05-03 06:11 1.2M
20260503T00Z_MSC_CAPS_WindSpeed_AGL-80m_RLatLon0.03_PT015H.grib2 2026-05-03 06:11 1.2M
20260503T00Z_MSC_CAPS_WindSpeed_IsbL-0050_RLatLon0.03_PT015H.grib2 2026-05-03 06:11 933K
20260503T00Z_MSC_CAPS_WindSpeed_IsbL-0100_RLatLon0.03_PT015H.grib2 2026-05-03 06:11 1.0M
20260503T00Z_MSC_CAPS_WindSpeed_IsbL-0150_RLatLon0.03_PT015H.grib2 2026-05-03 06:11 1.1M
20260503T00Z_MSC_CAPS_WindSpeed_IsbL-0175_RLatLon0.03_PT015H.grib2 2026-05-03 06:11 1.2M
20260503T00Z_MSC_CAPS_WindSpeed_IsbL-0200_RLatLon0.03_PT015H.grib2 2026-05-03 06:11 940K
20260503T00Z_MSC_CAPS_WindSpeed_IsbL-0225_RLatLon0.03_PT015H.grib2 2026-05-03 06:11 955K
20260503T00Z_MSC_CAPS_WindSpeed_IsbL-0250_RLatLon0.03_PT015H.grib2 2026-05-03 06:11 969K
20260503T00Z_MSC_CAPS_WindSpeed_IsbL-0275_RLatLon0.03_PT015H.grib2 2026-05-03 06:11 1.0M
20260503T00Z_MSC_CAPS_WindSpeed_IsbL-0300_RLatLon0.03_PT015H.grib2 2026-05-03 06:11 1.0M
20260503T00Z_MSC_CAPS_WindSpeed_IsbL-0350_RLatLon0.03_PT015H.grib2 2026-05-03 06:11 1.0M
20260503T00Z_MSC_CAPS_WindSpeed_IsbL-0400_RLatLon0.03_PT015H.grib2 2026-05-03 06:11 1.0M
20260503T00Z_MSC_CAPS_WindSpeed_IsbL-0450_RLatLon0.03_PT015H.grib2 2026-05-03 06:11 1.3M
20260503T00Z_MSC_CAPS_WindSpeed_IsbL-0500_RLatLon0.03_PT015H.grib2 2026-05-03 06:11 1.4M
20260503T00Z_MSC_CAPS_WindSpeed_IsbL-0550_RLatLon0.03_PT015H.grib2 2026-05-03 06:11 1.4M
20260503T00Z_MSC_CAPS_WindSpeed_IsbL-0600_RLatLon0.03_PT015H.grib2 2026-05-03 06:11 1.4M
20260503T00Z_MSC_CAPS_WindSpeed_IsbL-0650_RLatLon0.03_PT015H.grib2 2026-05-03 06:11 1.4M
20260503T00Z_MSC_CAPS_WindSpeed_IsbL-0700_RLatLon0.03_PT015H.grib2 2026-05-03 06:11 1.5M
20260503T00Z_MSC_CAPS_WindSpeed_IsbL-0750_RLatLon0.03_PT015H.grib2 2026-05-03 06:11 1.5M
20260503T00Z_MSC_CAPS_WindSpeed_IsbL-0800_RLatLon0.03_PT015H.grib2 2026-05-03 06:11 1.6M
20260503T00Z_MSC_CAPS_WindSpeed_IsbL-0850_RLatLon0.03_PT015H.grib2 2026-05-03 06:11 1.7M
20260503T00Z_MSC_CAPS_WindSpeed_IsbL-0875_RLatLon0.03_PT015H.grib2 2026-05-03 06:11 1.8M
20260503T00Z_MSC_CAPS_WindSpeed_IsbL-0900_RLatLon0.03_PT015H.grib2 2026-05-03 06:11 1.8M
20260503T00Z_MSC_CAPS_WindSpeed_IsbL-0925_RLatLon0.03_PT015H.grib2 2026-05-03 06:11 1.8M
20260503T00Z_MSC_CAPS_WindSpeed_IsbL-0950_RLatLon0.03_PT015H.grib2 2026-05-03 06:11 1.9M
20260503T00Z_MSC_CAPS_WindSpeed_IsbL-0970_RLatLon0.03_PT015H.grib2 2026-05-03 06:11 2.0M
20260503T00Z_MSC_CAPS_WindSpeed_IsbL-0985_RLatLon0.03_PT015H.grib2 2026-05-03 06:11 2.0M
20260503T00Z_MSC_CAPS_WindSpeed_IsbL-1000_RLatLon0.03_PT015H.grib2 2026-05-03 06:11 2.0M
20260503T00Z_MSC_CAPS_WindSpeed_IsbL-1015_RLatLon0.03_PT015H.grib2 2026-05-03 06:11 2.1M
20260503T00Z_MSC_CAPS_WindU_AGL-10m_RLatLon0.03_PT015H.grib2 2026-05-03 06:11 1.9M
20260503T00Z_MSC_CAPS_WindU_AGL-120m_RLatLon0.03_PT015H.grib2 2026-05-03 06:11 910K
20260503T00Z_MSC_CAPS_WindU_AGL-40m_RLatLon0.03_PT015H.grib2 2026-05-03 06:11 1.2M
20260503T00Z_MSC_CAPS_WindU_AGL-80m_RLatLon0.03_PT015H.grib2 2026-05-03 06:11 1.2M
20260503T00Z_MSC_CAPS_WindU_IsbL-0050_RLatLon0.03_PT015H.grib2 2026-05-03 06:11 942K
20260503T00Z_MSC_CAPS_WindU_IsbL-0100_RLatLon0.03_PT015H.grib2 2026-05-03 06:11 1.0M
20260503T00Z_MSC_CAPS_WindU_IsbL-0150_RLatLon0.03_PT015H.grib2 2026-05-03 06:11 718K
20260503T00Z_MSC_CAPS_WindU_IsbL-0175_RLatLon0.03_PT015H.grib2 2026-05-03 06:11 852K
20260503T00Z_MSC_CAPS_WindU_IsbL-0200_RLatLon0.03_PT015H.grib2 2026-05-03 06:11 871K
20260503T00Z_MSC_CAPS_WindU_IsbL-0225_RLatLon0.03_PT015H.grib2 2026-05-03 06:11 891K
20260503T00Z_MSC_CAPS_WindU_IsbL-0250_RLatLon0.03_PT015H.grib2 2026-05-03 06:11 910K
20260503T00Z_MSC_CAPS_WindU_IsbL-0275_RLatLon0.03_PT015H.grib2 2026-05-03 06:11 917K
20260503T00Z_MSC_CAPS_WindU_IsbL-0300_RLatLon0.03_PT015H.grib2 2026-05-03 06:11 717K
20260503T00Z_MSC_CAPS_WindU_IsbL-0350_RLatLon0.03_PT015H.grib2 2026-05-03 06:11 941K
20260503T00Z_MSC_CAPS_WindU_IsbL-0400_RLatLon0.03_PT015H.grib2 2026-05-03 06:11 947K
20260503T00Z_MSC_CAPS_WindU_IsbL-0450_RLatLon0.03_PT015H.grib2 2026-05-03 06:11 966K
20260503T00Z_MSC_CAPS_WindU_IsbL-0500_RLatLon0.03_PT015H.grib2 2026-05-03 06:11 1.0M
20260503T00Z_MSC_CAPS_WindU_IsbL-0550_RLatLon0.03_PT015H.grib2 2026-05-03 06:11 914K
20260503T00Z_MSC_CAPS_WindU_IsbL-0600_RLatLon0.03_PT015H.grib2 2026-05-03 06:11 946K
20260503T00Z_MSC_CAPS_WindU_IsbL-0650_RLatLon0.03_PT015H.grib2 2026-05-03 06:11 1.2M
20260503T00Z_MSC_CAPS_WindU_IsbL-0700_RLatLon0.03_PT015H.grib2 2026-05-03 06:11 1.3M
20260503T00Z_MSC_CAPS_WindU_IsbL-0750_RLatLon0.03_PT015H.grib2 2026-05-03 06:11 1.4M
20260503T00Z_MSC_CAPS_WindU_IsbL-0800_RLatLon0.03_PT015H.grib2 2026-05-03 06:11 1.4M
20260503T00Z_MSC_CAPS_WindU_IsbL-0850_RLatLon0.03_PT015H.grib2 2026-05-03 06:11 1.2M
20260503T00Z_MSC_CAPS_WindU_IsbL-0875_RLatLon0.03_PT015H.grib2 2026-05-03 06:11 1.2M
20260503T00Z_MSC_CAPS_WindU_IsbL-0900_RLatLon0.03_PT015H.grib2 2026-05-03 06:11 1.3M
20260503T00Z_MSC_CAPS_WindU_IsbL-0925_RLatLon0.03_PT015H.grib2 2026-05-03 06:11 1.3M
20260503T00Z_MSC_CAPS_WindU_IsbL-0950_RLatLon0.03_PT015H.grib2 2026-05-03 06:11 1.4M
20260503T00Z_MSC_CAPS_WindU_IsbL-0970_RLatLon0.03_PT015H.grib2 2026-05-03 06:11 1.4M
20260503T00Z_MSC_CAPS_WindU_IsbL-0985_RLatLon0.03_PT015H.grib2 2026-05-03 06:11 1.4M
20260503T00Z_MSC_CAPS_WindU_IsbL-1000_RLatLon0.03_PT015H.grib2 2026-05-03 06:11 1.8M
20260503T00Z_MSC_CAPS_WindU_IsbL-1015_RLatLon0.03_PT015H.grib2 2026-05-03 06:11 1.9M
20260503T00Z_MSC_CAPS_WindV_AGL-10m_RLatLon0.03_PT015H.grib2 2026-05-03 06:11 2.0M
20260503T00Z_MSC_CAPS_WindV_AGL-120m_RLatLon0.03_PT015H.grib2 2026-05-03 06:11 1.2M
20260503T00Z_MSC_CAPS_WindV_AGL-40m_RLatLon0.03_PT015H.grib2 2026-05-03 06:11 1.2M
20260503T00Z_MSC_CAPS_WindV_AGL-80m_RLatLon0.03_PT015H.grib2 2026-05-03 06:11 1.2M
20260503T00Z_MSC_CAPS_WindV_IsbL-0050_RLatLon0.03_PT015H.grib2 2026-05-03 06:11 763K
20260503T00Z_MSC_CAPS_WindV_IsbL-0100_RLatLon0.03_PT015H.grib2 2026-05-03 06:11 901K
20260503T00Z_MSC_CAPS_WindV_IsbL-0150_RLatLon0.03_PT015H.grib2 2026-05-03 06:11 724K
20260503T00Z_MSC_CAPS_WindV_IsbL-0175_RLatLon0.03_PT015H.grib2 2026-05-03 06:11 856K
20260503T00Z_MSC_CAPS_WindV_IsbL-0200_RLatLon0.03_PT015H.grib2 2026-05-03 06:11 872K
20260503T00Z_MSC_CAPS_WindV_IsbL-0225_RLatLon0.03_PT015H.grib2 2026-05-03 06:11 680K
20260503T00Z_MSC_CAPS_WindV_IsbL-0250_RLatLon0.03_PT015H.grib2 2026-05-03 06:11 697K
20260503T00Z_MSC_CAPS_WindV_IsbL-0275_RLatLon0.03_PT015H.grib2 2026-05-03 06:11 707K
20260503T00Z_MSC_CAPS_WindV_IsbL-0300_RLatLon0.03_PT015H.grib2 2026-05-03 06:11 717K
20260503T00Z_MSC_CAPS_WindV_IsbL-0350_RLatLon0.03_PT015H.grib2 2026-05-03 06:11 726K
20260503T00Z_MSC_CAPS_WindV_IsbL-0400_RLatLon0.03_PT015H.grib2 2026-05-03 06:11 947K
20260503T00Z_MSC_CAPS_WindV_IsbL-0450_RLatLon0.03_PT015H.grib2 2026-05-03 06:11 963K
20260503T00Z_MSC_CAPS_WindV_IsbL-0500_RLatLon0.03_PT015H.grib2 2026-05-03 06:11 1.0M
20260503T00Z_MSC_CAPS_WindV_IsbL-0550_RLatLon0.03_PT015H.grib2 2026-05-03 06:11 914K
20260503T00Z_MSC_CAPS_WindV_IsbL-0600_RLatLon0.03_PT015H.grib2 2026-05-03 06:11 944K
20260503T00Z_MSC_CAPS_WindV_IsbL-0650_RLatLon0.03_PT015H.grib2 2026-05-03 06:11 1.2M
20260503T00Z_MSC_CAPS_WindV_IsbL-0700_RLatLon0.03_PT015H.grib2 2026-05-03 06:11 1.0M
20260503T00Z_MSC_CAPS_WindV_IsbL-0750_RLatLon0.03_PT015H.grib2 2026-05-03 06:11 1.1M
20260503T00Z_MSC_CAPS_WindV_IsbL-0800_RLatLon0.03_PT015H.grib2 2026-05-03 06:11 1.1M
20260503T00Z_MSC_CAPS_WindV_IsbL-0850_RLatLon0.03_PT015H.grib2 2026-05-03 06:11 1.2M
20260503T00Z_MSC_CAPS_WindV_IsbL-0875_RLatLon0.03_PT015H.grib2 2026-05-03 06:11 1.2M
20260503T00Z_MSC_CAPS_WindV_IsbL-0900_RLatLon0.03_PT015H.grib2 2026-05-03 06:11 1.3M
20260503T00Z_MSC_CAPS_WindV_IsbL-0925_RLatLon0.03_PT015H.grib2 2026-05-03 06:11 1.3M
20260503T00Z_MSC_CAPS_WindV_IsbL-0950_RLatLon0.03_PT015H.grib2 2026-05-03 06:11 1.3M
20260503T00Z_MSC_CAPS_WindV_IsbL-0970_RLatLon0.03_PT015H.grib2 2026-05-03 06:11 1.4M
20260503T00Z_MSC_CAPS_WindV_IsbL-0985_RLatLon0.03_PT015H.grib2 2026-05-03 06:11 1.4M
20260503T00Z_MSC_CAPS_WindV_IsbL-1000_RLatLon0.03_PT015H.grib2 2026-05-03 06:11 1.8M
20260503T00Z_MSC_CAPS_WindV_IsbL-1015_RLatLon0.03_PT015H.grib2 2026-05-03 06:11 1.8M